FW6569 Weather Reports


time (UTC)temp
F
wind
direction
speed
knots
gust
knots
rain 1hr
in
rain 24hr
in
rain mn
in
humidity
%
barometer
mb
20260503200526 63 218 7.8 13.0 0.00 0.00 0.00 37 1016.0
20260503195545 63 200 11.3 17.4 0.00 0.00 0.00 37 1016.0
20260503194525 63 198 9.6 11.3 0.00 0.00 0.00 36 1016.1
20260503193525 63 205 7.8 13.9 0.00 0.00 0.00 37 1016.4
20260503192546 62 197 10.4 14.8 0.00 0.00 0.00 38 1016.5
20260503191546 62 213 11.3 15.6 0.00 0.00 0.00 38 1016.7
20260503190545 60 215 9.6 13.9 0.00 0.00 0.00 38 1017.1
20260503185525 62 215 11.3 14.8 0.00 0.00 0.00 37 1017.2
20260503184526 62 203 10.4 18.2 0.00 0.00 0.00 39 1017.6
20260503183525 62 239 7.0 10.4 0.00 0.00 0.00 37 1017.8
20260503182526 61 218 11.3 15.6 0.00 0.00 0.00 38 1017.9
20260503181526 61 208 7.8 11.3 0.00 0.00 0.00 39 1018.1
20260503180526 61 232 7.8 13.0 0.00 0.00 0.00 38 1018.1
20260503175546 60 207 8.7 15.6 0.00 0.00 0.00 39 1018.2
20260503174526 60 208 10.4 15.6 0.00 0.00 0.00 37 1018.2
20260503173526 61 220 7.0 8.7 0.00 0.00 0.00 39 1018.4
20260503172526 60 229 7.0 11.3 0.00 0.00 0.00 38 1018.6
20260503171526 60 212 9.6 14.8 0.00 0.00 0.00 38 1018.7
20260503170526 60 207 7.8 13.0 0.00 0.00 0.00 38 1018.8
20260503150526 56 225 4.3 7.8 0.00 0.00 0.00 48 1020.5
20260503130526 47 229 4.3 7.0 0.00 0.00 0.00 63 1020.5
20260503110526 35 194 1.7 2.6 0.00 0.00 0.00 92 1019.8
20260503081526 32 0.0 0.0 0.00 0.00 0.00 96 1019.2
20260503080527 32 0.0 0.0 0.00 0.00 0.00 95 1019.3
20260503072526 32 0.0 0.0 0.00 0.00 0.00 95 1019.3
20260503071527 32 0.0 0.0 0.00 0.00 0.00 95 1019.2
20260503070547 32 0.0 0.0 0.00 0.00 0.00 94 1019.2
20260503054527 33 0.0 0.0 0.00 0.00 0.00 93 1019.8
20260503053547 34 0.0 0.0 0.00 0.00 0.00 93 1019.8
20260503052526 34 0.0 0.0 0.00 0.00 0.00 93 1019.9
20260503051547 34 0.0 0.0 0.00 0.00 0.00 93 1019.8
20260503050526 34 0.0 0.0 0.00 0.00 0.00 92 1019.7
20260503045527 34 0.0 0.0 0.00 0.00 0.00 92 1019.7
20260503044527 35 0.0 0.0 0.00 0.00 0.00 92 1019.7
20260503043527 35 0.0 0.0 0.00 0.00 0.00 92 1019.6
20260503042527 35 0.0 0.0 0.00 0.00 0.00 91 1019.6
20260503041526 35 0.0 0.0 0.00 0.00 0.00 91 1019.6
20260503040526 34 0.0 0.0 0.00 0.00 0.00 87 1019.7
20260503035527 35 0.0 0.0 0.00 0.00 0.00 86 1019.7
20260503034527 35 0.0 0.0 0.00 0.00 0.00 86 1019.8
20260503033527 36 0.0 0.0 0.00 0.00 0.00 86 1019.8
20260503032527 36 0.0 0.0 0.00 0.00 0.00 85 1019.8
20260503031527 37 0.0 0.0 0.00 0.00 0.00 84 1019.9
20260503030527 37 0.0 0.0 0.00 0.00 0.00 83 1019.9
20260503025526 38 0.0 0.0 0.00 0.00 0.00 82 1019.8
20260503024527 38 0.0 0.0 0.00 0.00 0.00 80 1019.7
20260503023527 38 0.0 0.0 0.00 0.00 0.00 79 1019.7
20260503022527 39 0.0 0.0 0.00 0.00 0.00 75 1019.6
20260503021527 39 0.0 0.0 0.00 0.00 0.00 75 1019.6
20260503020527 40 0.0 0.0 0.00 0.00 0.00 75 1019.4
20260503015527 40 0.0 0.0 0.00 0.00 0.00 74 1019.3
20260503014527 41 0.0 0.0 0.00 0.00 0.00 72 1019.2
20260503013547 41 0.0 0.0 0.00 0.00 0.00 68 1019.1
20260503012607 42 0.0 0.0 0.00 0.00 0.00 66 1019.1
20260503011527 43 0.0 0.0 0.00 0.00 0.00 63 1018.9
20260503010527 43 0.0 0.0 0.00 0.00 0.00 61 1018.8
20260503005527 45 0.0 0.0 0.00 0.00 0.00 60 1018.7
20260503004527 46 293 0.0 1.7 0.00 0.00 0.00 58 1018.6
20260503003527 47 338 0.0 1.7 0.00 0.00 0.00 55 1018.6
20260503002527 47 346 0.9 2.6 0.00 0.00 0.00 53 1018.5
20260503001527 48 0 3.5 6.1 0.00 0.00 0.00 52 1018.4
20260503000527 49 9 3.5 6.1 0.00 0.00 0.00 50 1018.4
20260502235527 49 6 3.5 7.0 0.00 0.00 0.00 50 1018.4
20260502234547 50 333 2.6 6.1 0.00 0.00 0.00 48 1018.3
20260502233608 51 358 3.5 8.7 0.00 0.00 0.00 47 1018.2
20260502232527 51 344 3.5 5.2 0.00 0.00 0.00 45 1018.2
20260502231527 52 352 4.3 7.0 0.00 0.00 0.00 44 1018.1
20260502230527 52 332 2.6 5.2 0.00 0.00 0.00 45 1018.1
20260502225527 52 358 5.2 8.7 0.00 0.00 0.00 46 1018.1
20260502224527 53 352 2.6 6.1 0.00 0.00 0.00 44 1018.1
20260502223527 54 347 2.6 7.0 0.00 0.00 0.00 43 1018.1
20260502222527 53 343 2.6 6.1 0.00 0.00 0.00 44 1018.1
20260502221527 52 335 3.5 7.8 0.00 0.00 0.00 45 1018.1
20260502220527 53 6 3.5 9.6 0.00 0.00 0.00 46 1018.0
20260502215527 55 356 4.3 11.3 0.00 0.00 0.00 41 1017.9
20260502214528 56 1 5.2 8.7 0.00 0.00 0.00 41 1017.8
20260502213527 55 354 3.5 7.8 0.00 0.00 0.00 41 1017.8
20260502212527 54 358 6.1 11.3 0.00 0.00 0.00 41 1017.8
20260502211528 54 2 7.0 12.2 0.00 0.00 0.00 40 1017.7
20260502210527 56 339 4.3 7.8 0.00 0.00 0.00 40 1017.7
20260502205527 55 12 3.5 7.0 0.00 0.00 0.00 43 1017.7
20260502204628 54 301 4.3 6.1 0.00 0.00 0.00 41 1017.8
20260502203528 54 313 2.6 6.1 0.00 0.00 0.00 42 1017.7
20260502202528 54 3 3.5 7.8 0.00 0.00 0.00 42 1017.8
20260502201527 54 1 4.3 13.9 0.00 0.00 0.00 41 1017.9